Zurück zum Katalog

SCOUT A DEB

AktivPO
NORAD 2141·DEBRIS·🇺🇸 United States

Gestartet Jan 28, 1966 von Vandenberg Space Force Base

Loading…

Nächste Überflüge (nächste 24 Stunden)

TLE

AktuellSource: Space-Track

Epoche: Sep 14, 2026, 10:54 UTC

1 02141U 66005D   26257.45451646  .00000456  00000-0  25521-3 0  9995
2 02141  90.2399 261.0183 0118231 139.7865 221.2141 14.05946433 81122

Verfolge SCOUT A DEB in Echtzeit mit AllMySat

Download on the App Store